Von / Nach
Hinflug - Rückflug
Erwachsene / Kinder
Promocode
Nächste Ankünfte Flughafen St.Gallen-Altenrhein

ZeitErw.vonFlugInfo
09:1009:10WienPE101
gelandet
17:2517:25WienPE105
umgeleitet
nach Friedrichshafen
20:5522:15WienPE107
umgeleitet
nach Friedrichshafen aufgrund Strum in Altenrhein. Die Passagiere werden mit einem Bus nach Altenrhein gebracht. Der Bus wird ca. um 23.30 Uhr in Altenrhein eintreffen.
Nächste Abflüge Flughafen St.Gallen-Altenrhein

ZeitGeplantnachFlugInfo
06:3006:30WienPE100
abgeflogen
09:5009:50WienPE102
abgeflogen
18:1019:45WienPE106
abgeflogen
Abflug ab Friedrichshafen

Flugplan

Bitte wählen Sie Ihren gewünschten Abflug- und Zielflughafen aus.


Live aus Altenrhein
LIVE
LSZR 251750Z 16019G37KT 120V220 CAVOK 21/01 Q1007 NOSIG RMK O
Zeitraffer heute
2019-04-25 00:14:26
LSZR 242150Z AUTO 09004KT 040V130 9999 NCD 08/05 Q1010
Zeitraffer gestern
2019-04-24 00:14:00
LSZR 232150Z AUTO 16009KT 110V210 CAVOK 19/03 Q1000

Wien

Samstags-Special: Altenrhein-Wien für EUR 89.-.

 

Jetzt buchen

Menorca

Ab EUR 299.- hin & zurück.

 

Jetzt buchen

Kalabrien

Ab EUR 329.- hin & zurück.

 

Jetzt buchen

Ibiza

Ab EUR 279.- hin & zurück.

 

Jetzt buchen

Mallorca

Ab EUR 349.- hin & zurück.

 

Jetzt buchen

General Aviation

Business & General Aviation LSZR.

 

More information

 

 Shuttlebus


Nutzen Sie unseren

Shuttlebus zwischen Altenrhein

und Dornbirn & Bregenz.

 

Mehr dazu

 

People's Online-Shop


Von der Überraschung an

Bord über Badetücher bis

zum Flugzeugmodell.

 

Mehr dazu


News


Aktuelles von People's

und dem Flughafen

St.Gallen-Altenrhein.

 

Mehr dazu

 

Ad-hoc Charter


Chartern Sie eine unserer

Embraer170 für Ihren eigenen

Anlass oder ACMI-Einsätze.


Mehr dazu

  

 

Teile dein People's-Erlebnis mit uns:

 

#peoplesairline bei Instagram